Skip Page Navigation
NASA JPL Caltech
NASA Logo - Jet Propulsion Laboratory + View the NASA Portal
+ Center for Near-Earth Object Studies
JPL Home Earth Solar System Stars & Galaxies Technology
JPL Solar System Dynamics
BODIES ORBITS EPHEMERIDES TOOLS PHYSICAL DATA DISCOVERY FAQ SITE MAP
IMPORTANT: The SSD Announcement email list is now available. Major changes are coming in the near future, including possible hostname and/or URL changes. To be notified of such changes, subscribe to this email list.

Please visit this page for more details.


JPL Small-Body Database Browser
Search: [ help ]  
410543 (2008 FC75)
Classification: Main-belt Asteroid          SPK-ID: 2410543
Ephemeris | Orbit Diagram | Orbital Elements | Mission Design | Physical Parameters | Discovery Circumstances ]

[ show orbit diagram ]
Orbital Elements at Epoch 2458600.5 (2019-Apr-27.0) TDB
Reference: JPL 11 (heliocentric ecliptic J2000)
 Element Value Uncertainty (1-sigma)   Units 
e .1270533824903342 8.6712e-08  
a 2.742483688436022 5.4256e-08 au
q 2.394041859395657 2.2957e-07 au
i 6.023884734293126 6.3733e-06 deg
node 106.944300774466 8.3838e-05 deg
peri 243.9364070808153 8.6974e-05 deg
M 9.147936860809024 2.7143e-05 deg
tp 2458558.346352034096
(2019-Mar-15.84635203)
0.0001244 TDB
period 1658.87822561813
4.54
4.9228e-05
1.348e-07
d
yr
n .2170141210129255 6.4399e-09 deg/d
Q 3.090925517476386 6.1149e-08 au
  Orbit Determination Parameters
   # obs. used (total)      107  
   data-arc span      4228 days (11.58 yr)  
   first obs. used      2005-08-31  
   last obs. used      2017-03-29  
   planetary ephem.      DE431  
   SB-pert. ephem.      SB431-N16  
   condition code      0  
   norm. resid. RMS      .69559  
   source      ORB  
   producer      Otto Matic  
   solution date      2017-Apr-09 17:31:15  

Additional Information
 Earth MOID = 1.39432 au 
 Jupiter MOID = 2.32468 au 
 T_jup = 3.330 
[ show covariance matrix ]

Ephemeris | Orbit Diagram | Orbital Elements | Mission Design | Physical Parameters | Discovery Circumstances ]

Physical Parameter Table
Parameter Symbol Value Units Sigma Reference Notes
absolute magnitude H 17.0   n/a MPO495081  

410543 (2008 FC75)          Discovered 2008-Mar-31 by Mt. Lemmon Survey at Mount Lemmon
Reference: Last Updated: 2014-10-09

Alternate Designations
 2008 FC75 = 2014 QM336 
Ephemeris | Orbit Diagram | Orbital Elements | Mission Design | Physical Parameters | Discovery Circumstances ]
ABOUT SSD CREDITS/AWARDS PRIVACY/COPYRIGHT GLOSSARY LINKS
FirstGov 2020-Jan-24 02:05 UT
(server date/time)  
NASA Home Page
Site Manager:   Ryan S. Park
Webmaster  Alan B. Chamberlin